sat.trackr.live / text

‹ back to catalog

STARLINK-31807

NORAD 59639 · 2024-082J

PAYLOAD ACTIVE UNKNOWN

§ Identity

Operator
Country
US
Launch date
2024-05-03
Launch site
AFETR
Launch vehicle
Mass (kg)
RCS (m²)

Purposes: comms

External: N2YO · Heavens-Above · Gunter

§ Orbital elements

Epoch: 2026-05-24T23:07:33.152160Z

Period
94.27 min
Inclination
43.0029°
Eccentricity
0.0000787
Mean motion
15.27575571 rev/d
Perigee alt
482.5 km
Apogee alt
483.6 km
Semi-major
6,861.2 km
B*
-1.0336e-5
RAAN
69.3491°
Arg perigee
266.5383°
Mean anomaly
93.5379°
Rev number
11,647

§ Raw data

STARLINK-318071 59639U 24082J   26144.96357815 -.00000546  00000+0 -10336-4 0  99922 59639  43.0029  69.3491 0000787 266.5383  93.5379 15.27575571116479

JSON: /api/v1/satellites/59639 · /tle

For live sub-satellite position, see the globe view (requires WebGL).

§ Visibility from observer

Set your observer location to see the next 7 days of passes ≥ 10°. The values pass through the URL so the page stays shareable.

No JS? Fill the form by hand. The geolocation button needs JavaScript.